Location: Brachbach
(49.1847°N, 9.7240°E)
Time: 20:43:11
(UTC+00:00)

Cosmos 2219 Rocket - Pass Details

Date: 19 August 2024
Orbit: 826 x 846 km, 71.0° (Epoch: 09 September)

Event Time Altitude Azimuth Distance (km) Brightness Sun altitude
Exits shadow 01:06:12 14° 281° (WNW) 2,203 4.2 -24.2°
Maximum altitude 01:09:20 21° 321° (NW) 1,824 4.1 -24.0°
Drops below altitude 10° 01:13:34 10° 9° (N) 2,481 5.6 -23.7°
Sets 01:16:40 0° 25° (NNE) 3,419 6.8 -23.4°
